Regional Weather Roundup
Issued by NWS

Home | Current Version | Previous Version | Graphics & Text | Print | Product List | Glossary On
Versions: 1 2 3 4 5 6 7 8 9 10 11 12 13 14 15 16 17 18 19 20 21 22 23 24 25 26 27 28 29 30 31 32 33 34 35 36 37 38 39 40 41 42 43 44 45 46 47 48 49 50
000
ASUS44 KMEG 291300
RWRTN
TENNESSEE HOURLY STATE WEATHER ROUNDUP
NATIONAL WEATHER SERVICE MEMPHIS TN
800 AM CDT FRI AUG 29 2014

TNZ002-004-019-021-049-052-054-088>092-291400-
WEST TENNESSEE

CITY           SKY/WX    TMP DP  RH WIND       PRES   REMARKS
MEMPHIS INTL   MOSUNNY   79  67  66 SE5       29.98R
NWS MEMPHIS      N/A     75 N/A N/A MISG        N/A
JACKSON        MOSUNNY   75  70  84 CALM      29.99S
DYERSBURG      SUNNY     73  63  68 CALM      30.00R
UNION CITY     SUNNY     73  72  94 CALM      29.98R
PARIS          SUNNY     73  70  88 S5        30.01S
LEXINGTON      SUNNY     73  70  88 CALM      30.01R
SAVANNAH       SUNNY     72  72 100 S3        30.02S
$$

TNZ008-025-027-028-033-062-065-066-291400-
NORTH MIDDLE TENNESSEE

CITY           SKY/WX    TMP DP  RH WIND       PRES   REMARKS
NASHVILLE      MOSUNNY   76  70  82 S5        30.04S
CLARKSVILLE    SUNNY     74  71  91 SE5       30.01S
COOKEVILLE     SUNNY     73  72  94 CALM      30.08R
CROSSVILLE     SUNNY     78  69  73 CALM      30.14R
$$

TNZ061-075-076-078-094-096-097-291400-
SOUTH MIDDLE TENNESSEE

CITY           SKY/WX    TMP DP  RH WIND       PRES   REMARKS
FAYETTEVILLE   SUNNY     72  63  73 S3        30.07R
TULLAHOMA      SUNNY     73  64  73 CALM      30.08S
WINCHESTER     SUNNY     73  66  78 SE5       30.08R
COLUMBIA         N/A     73  68  83 S3        30.03R
SHELBYVILLE    SUNNY     73  70  88 E3        30.07R
$$

TNZ017-018-042-046-047-291400-
NORTHEAST TENNESSEE

CITY           SKY/WX    TMP DP  RH WIND       PRES   REMARKS
TRI CITIES     MOSUNNY   72  65  78 E3        30.14R
ELIZABETHTON   SUNNY     72  66  83 NE3       30.14S
$$

TNZ012-013-036-069-073-074-291400-
CENTRAL EAST TENNESSEE

CITY           SKY/WX    TMP DP  RH WIND       PRES   REMARKS
KNOXVILLE      MOSUNNY   75  70  84 CALM      30.09R
OAK RIDGE      SUNNY     76  72  87 CALM      30.11R
GATLINBURG     SUNNY     73  68  83 CALM      30.09S
$$

TNZ083-085-099-291400-
SOUTHEAST TENNESSEE

CITY           SKY/WX    TMP DP  RH WIND       PRES   REMARKS
CHATTANOOGA    MOSUNNY   73  64  73 CALM      30.09R
$$

SKY/WX REPORTED AS FAIR MEANS FEW OR NO CLOUDS BELOW
12 THOUSAND FEET.



USA.gov is the U.S. government's official web portal to all federal, state and local government web resources and services.